Vorticity
2 2 2 1 2 1 3 2 0 4 3 9 24 27 5 -9 1 5 5 10 1 -2 2 -2 3 4 -4 -3 1 4 5 4 1 3 4 4 4 2 1 -1 -0 2 4 5 3 2 5 6 8 7 2 5 8 7 8 8 5 2 3 5 6 8 7 6 5 4 4 4 6 5 4 4 5 9 11 7 6 8 9 11 10 7 5 4 5 7 9 10 7 6 6 7 8 7 7 6 5
3 2 2 2 2 2 2 2 2 2 4 3 11 32 23 -1 1 5 5 6 -0 -2 1 -2 -2 -1 -5 -3 0 2 3 4 2 0 2 3 2 1 1 2 3 4 4 4 2 4 5 6 9 8 3 4 8 7 7 7 5 2 3 4 6 7 8 6 5 5 3 4 6 5 4 4 5 8 9 5 5 7 8 10 11 8 7 5 6 7 8 9 8 8 7 6 7 7 7 7 6
3 3 2 3 2 2 3 2 4 3 2 4 2 16 26 13 3 3 -2 -0 3 -1 1 -1 -5 -4 -1 -0 -3 -1 1 3 2 -0 2 1 -0 2 3 2 4 10 12 7 4 4 4 6 8 6 3 4 7 6 7 8 5 2 2 4 6 7 8 7 5 4 4 4 5 4 4 5 6 6 6 4 5 7 8 10 12 9 7 6 6 7 6 7 9 10 9 7 5 6 6 6 6
4 3 2 3 2 1 3 2 3 4 1 4 4 3 17 24 12 -2 -9 -2 5 -1 2 4 -2 -8 -6 1 -0 1 3 4 3 1 1 0 -0 0 1 3 8 11 9 7 5 6 7 7 6 5 4 4 6 6 7 7 5 2 2 4 5 7 8 7 6 4 3 4 4 3 4 6 6 5 4 2 3 5 6 9 12 10 6 6 6 6 5 6 8 10 11 8 6 5 5 5 5
3 3 3 2 3 2 2 3 2 3 1 1 7 5 9 24 19 -1 -11 -1 4 -1 1 3 1 -7 -11 -4 -1 1 -0 1 1 -0 1 -0 -0 1 4 6 7 4 4 5 5 6 6 7 7 6 4 4 6 7 8 7 6 3 2 5 5 7 8 7 5 4 3 3 2 2 3 6 5 5 4 2 2 3 4 7 11 11 7 6 5 5 5 5 5 7 10 9 7 5 5 5 5
3 3 3 2 3 4 2 3 3 2 2 2 5 8 8 16 20 9 -6 -4 2 -0 0 1 0 -7 -14 -16 -14 -7 -4 -1 -1 -1 2 1 2 7 10 9 4 -0 1 4 4 5 3 3 6 6 4 4 6 7 7 6 6 4 3 4 5 6 8 7 5 4 3 3 2 1 2 4 5 6 6 5 3 3 3 4 8 10 7 5 4 4 4 4 4 5 7 8 8 7 6 7 6
3 3 3 3 3 4 4 3 4 2 3 4 2 6 9 9 13 15 7 0 0 -1 -1 2 4 -1 -7 -15 -18 -8 0 1 -0 -0 1 0 3 9 9 5 3 -0 1 4 2 3 4 4 5 6 5 4 6 8 7 6 7 5 4 5 6 7 7 7 6 4 3 3 2 1 2 2 5 6 7 7 6 6 6 5 5 8 8 5 3 3 3 3 4 4 5 6 7 7 7 8 7
3 4 4 3 4 4 4 3 3 3 4 4 3 3 6 7 6 10 13 9 7 6 4 5 8 8 8 4 -6 -3 3 1 -1 -2 -1 6 8 5 -1 -3 2 2 3 4 2 3 4 6 6 6 5 4 5 7 6 7 7 5 5 5 6 7 7 7 5 4 3 3 2 1 2 2 5 8 8 7 8 7 8 8 6 7 7 5 3 2 2 3 4 5 5 5 6 6 6 7 7
3 3 4 3 4 4 4 4 2 2 2 2 4 4 3 5 5 6 7 5 7 8 5 3 4 5 7 6 0 -0 3 1 -0 -1 4 11 2 -7 -6 -3 4 7 5 3 3 4 4 6 7 6 5 5 5 6 7 7 7 6 6 5 7 7 6 7 5 4 3 3 2 2 2 4 7 8 7 6 7 8 9 10 8 8 7 5 3 1 2 4 6 6 5 6 5 5 5 6 6
3 3 3 4 4 4 4 4 2 1 0 1 3 4 3 4 7 8 6 2 1 3 1 0 1 1 2 1 0 0 1 2 0 2 7 2 -9 -7 -0 1 7 13 9 4 5 6 5 5 5 5 5 4 5 6 7 7 7 6 5 5 8 8 7 6 6 4 3 3 2 3 3 5 8 7 6 6 8 8 9 11 9 8 8 7 4 3 3 5 7 7 6 6 6 6 6 6 5
4 4 3 5 4 4 5 4 3 1 -0 2 1 0 2 4 8 8 9 8 1 2 2 0 1 1 0 1 2 3 3 2 2 4 5 -1 -4 1 0 3 13 18 14 7 7 8 6 5 5 5 4 5 5 6 8 7 7 6 5 6 8 9 7 6 5 4 3 3 3 3 4 6 8 6 5 6 7 8 9 10 11 10 9 9 6 5 5 6 8 7 6 6 6 6 6 6 6
3 3 3 5 6 3 3 5 3 1 2 3 -1 -1 2 5 8 5 6 11 5 3 4 3 2 1 0 1 2 3 3 3 4 3 2 1 1 0 0 9 15 15 16 12 8 8 7 6 5 4 4 5 5 6 8 7 7 6 4 6 10 9 7 6 5 4 3 3 3 3 4 6 7 4 4 6 7 8 8 9 11 11 10 10 9 8 6 8 9 7 6 6 5 6 6 7 7
3 3 3 6 6 4 3 5 3 3 3 2 -0 -1 3 4 5 6 6 7 5 4 5 5 3 2 2 1 2 3 3 3 3 3 2 1 -1 4 8 12 12 10 15 14 9 6 5 4 1 2 4 4 6 7 8 8 6 5 4 6 11 10 6 6 4 4 4 3 3 3 4 7 6 4 4 6 6 7 8 9 10 11 11 10 9 9 8 8 8 7 6 6 6 6 7 8 9
3 3 3 5 5 4 5 5 4 5 3 -0 2 0 3 4 1 7 9 5 1 0 2 5 4 3 3 1 2 3 4 5 4 3 3 1 3 11 11 8 9 10 14 15 11 6 3 2 1 3 4 4 6 7 7 7 6 4 3 6 10 9 5 5 5 4 4 3 3 3 4 7 4 3 4 5 7 7 8 10 10 10 10 9 9 8 8 8 7 7 6 6 6 7 9 10 11
1 2 3 5 4 4 6 5 4 6 5 -0 1 3 3 3 3 5 10 7 -1 -4 -2 3 3 2 2 0 -0 2 3 4 3 3 4 4 7 9 6 6 8 10 15 16 12 10 8 7 8 7 5 5 6 7 9 7 6 5 4 7 10 9 6 5 4 4 3 3 3 3 5 6 4 3 4 5 7 7 9 9 9 9 9 8 8 8 8 8 7 6 6 6 7 8 10 10 10
2 2 3 4 4 5 5 4 5 5 4 2 1 6 3 0 7 6 7 9 2 -3 -2 0 2 3 3 -1 -1 1 -0 -1 2 3 3 6 9 5 3 6 6 8 13 15 16 15 14 13 10 8 5 5 7 7 8 7 6 6 4 7 10 8 5 5 4 4 3 4 4 4 5 5 5 3 3 5 6 7 9 9 10 9 8 7 7 7 7 7 6 6 6 7 7 8 8 8 8
3 3 4 4 5 5 6 5 5 3 2 3 2 5 5 -0 6 11 8 7 4 2 2 2 2 4 4 3 2 0 -1 -1 -0 1 6 12 8 2 4 7 5 4 6 9 15 17 15 13 8 6 6 5 7 9 8 8 7 6 6 7 9 8 6 5 4 4 4 4 4 4 4 5 5 3 3 5 6 7 9 10 10 9 7 7 6 6 6 7 7 7 7 7 7 7 7 6 5
4 5 4 5 5 4 5 5 4 4 2 3 2 2 7 3 2 12 12 5 4 4 5 5 4 6 7 6 5 3 3 3 4 8 11 10 3 0 5 4 3 7 9 10 13 15 13 9 8 7 6 6 6 9 8 8 8 6 6 8 9 8 6 5 5 4 4 5 5 4 4 6 5 3 3 5 6 7 9 10 9 8 7 6 6 6 6 7 7 7 7 7 7 7 6 5 5
5 4 4 5 5 3 3 5 4 4 3 3 3 3 7 6 2 8 13 8 4 3 6 7 5 7 8 5 6 6 7 8 9 7 3 1 -1 2 4 -2 0 6 7 9 8 9 12 9 11 9 6 8 8 9 9 7 7 7 6 8 9 7 6 6 5 4 4 5 5 3 4 7 5 3 3 4 6 7 8 9 7 6 6 6 6 6 7 7 7 8 7 8 9 8 7 6 6
9 7 6 5 4 4 4 5 5 4 6 6 5 8 7 7 6 7 10 8 4 4 7 8 6 6 7 8 9 8 8 9 5 -2 -0 7 7 1 -3 -4 4 9 6 7 6 3 6 7 7 8 7 8 8 8 8 8 7 6 9 11 9 7 7 7 6 5 5 5 4 3 5 7 5 3 3 4 5 6 7 7 7 7 7 7 7 7 8 8 8 8 8 8 9 9 7 7 8
11 10 8 8 6 6 5 4 5 4 7 8 8 10 8 7 8 7 8 7 4 5 7 9 7 6 7 7 8 7 6 5 1 -3 -7 3 29 32 17 9 6 7 7 4 5 4 2 5 5 6 8 8 8 9 7 8 9 9 11 11 9 8 8 7 6 5 5 5 4 4 5 6 6 3 3 4 4 3 6 8 7 7 7 8 8 9 9 9 9 8 8 8 8 7 6 6 6
8 9 8 10 11 10 9 8 7 7 8 9 8 8 7 8 9 7 7 6 6 7 8 9 7 5 6 5 6 5 4 2 3 6 -4 -7 19 34 24 25 22 9 7 6 4 7 6 6 8 5 4 4 4 5 7 9 10 12 12 9 8 9 8 7 5 4 5 5 5 6 6 6 6 5 4 4 3 2 6 9 8 8 8 9 10 10 10 8 7 6 6 5 5 5 4 4 5
5 6 7 9 11 12 14 15 13 13 12 10 9 8 7 9 8 7 7 6 7 7 7 7 6 6 5 4 4 4 4 5 6 7 12 12 11 21 22 20 26 12 -1 6 10 12 12 6 7 7 6 7 5 1 2 7 7 9 11 10 10 9 7 6 4 4 5 5 7 7 6 6 6 6 5 4 2 2 7 8 8 10 10 10 9 8 7 5 5 6 6 6 6 6 5 5 6
5 4 5 6 7 10 12 15 16 16 17 14 11 10 9 7 7 7 7 6 7 7 6 6 6 5 4 4 4 4 2 4 8 4 10 23 15 20 25 10 30 43 14 3 13 14 12 12 9 6 5 7 13 8 -2 -0 1 4 9 10 9 7 6 6 4 5 6 7 8 7 6 6 7 7 6 4 1 2 6 7 7 10 10 9 8 7 7 6 8 8 9 10 10 11 9 8 7
6 4 3 4 5 7 9 11 13 14 16 16 14 12 9 6 7 7 6 7 8 7 6 5 4 3 2 3 3 3 2 -0 8 9 6 19 10 -8 -5 -6 16 34 -0 -17 9 16 7 11 8 16 32 25 26 24 6 7 7 4 8 7 7 6 6 7 5 5 6 8 7 7 7 7 8 8 7 5 2 2 4 6 7 9 8 8 8 8 9 9 9 9 9 10 10 11 9 7 6
8 5 3 3 3 5 7 9 10 11 13 15 16 15 10 7 7 5 5 7 8 7 6 5 3 2 1 2 3 -0 0 3 7 9 4 14 19 -2 -10 -6 -8 -12 -23 -17 13 24 16 10 1 17 37 21 24 34 16 15 15 6 6 6 6 6 7 7 5 5 6 7 7 7 8 7 7 8 8 6 2 2 5 6 6 7 7 7 8 8 9 9 9 9 8 8 8 8 7 6 6
6 6 5 4 3 3 5 6 7 8 9 10 14 16 13 9 7 5 5 6 7 6 4 5 3 3 3 1 3 0 1 7 7 8 6 12 23 16 6 5 3 -1 5 9 6 10 20 18 7 5 1 -11 7 24 10 6 9 5 6 6 6 5 6 6 4 5 5 6 6 6 6 7 8 9 10 7 3 4 4 5 6 7 8 7 6 6 6 7 7 7 7 7 7 7 7 7 8
5 6 7 6 4 3 3 4 5 6 7 8 11 16 13 8 7 5 4 4 4 3 3 4 3 2 4 3 1 2 6 8 4 6 11 13 14 15 14 10 13 15 18 16 -2 -4 9 13 14 10 4 2 9 14 11 8 4 3 6 5 6 5 5 6 6 7 7 7 6 5 6 6 7 9 10 5 4 4 3 5 7 7 8 5 4 4 4 4 4 4 4 4 5 5 5 5 6
7 6 6 7 7 5 3 4 5 5 6 9 10 11 10 7 7 6 4 3 1 3 3 2 3 3 8 13 8 4 9 7 5 9 10 11 10 12 14 7 8 12 14 15 3 -0 6 8 13 15 16 15 9 12 19 17 5 -0 4 7 6 7 7 7 8 8 7 7 6 6 5 5 6 7 6 4 4 4 3 6 5 5 7 4 3 3 1 2 2 2 2 2 3 3 3 4 4
9 7 6 6 8 8 6 3 4 5 5 9 9 6 11 12 7 6 5 5 4 3 3 3 3 6 15 20 14 8 11 11 7 8 6 8 12 13 13 6 3 6 9 12 8 5 9 12 12 10 13 13 9 12 17 22 17 3 0 4 5 7 8 8 9 8 6 6 6 6 5 4 4 4 4 5 6 4 5 4 2 6 8 3 2 1 1 3 2 2 2 3 3 4 4 4 5
10 9 8 8 8 8 9 5 3 5 4 7 7 5 12 13 6 6 6 5 8 5 5 9 3 4 16 16 10 9 9 11 9 8 10 10 11 10 11 10 9 9 9 10 9 6 7 15 18 11 9 10 10 11 10 14 16 10 4 0 4 7 8 9 10 9 8 7 7 5 5 5 5 7 6 7 7 5 4 1 3 10 7 3 4 4 3 3 3 4 4 5 5 5 6 6 6
10 9 8 9 8 7 9 8 5 5 6 7 5 5 10 10 6 8 9 7 9 9 12 14 5 3 13 10 4 6 5 7 10 9 11 12 12 11 12 11 10 9 10 9 8 6 2 7 20 21 12 8 8 8 9 2 -2 10 14 3 3 7 8 9 9 9 8 7 8 6 5 8 11 11 9 8 7 6 3 2 8 13 8 5 6 7 6 4 4 6 5 6 6 6 6 7 6
8 8 9 8 8 8 8 8 8 6 6 5 3 4 9 8 5 6 10 12 14 16 16 13 9 6 7 4 1 3 5 7 9 10 9 10 9 9 11 11 10 10 9 8 7 7 5 0 8 16 14 12 6 3 13 10 0 9 17 10 6 8 8 8 7 8 7 6 8 10 9 8 11 13 11 8 6 6 3 4 10 12 9 8 6 6 6 5 5 6 6 6 6 6 6 7 6
7 5 7 8 8 9 8 8 10 8 3 3 3 3 7 7 7 6 6 11 18 19 13 7 9 8 3 1 2 3 5 7 8 8 7 7 7 6 7 8 10 13 10 8 6 7 9 8 8 10 13 15 9 7 16 16 7 6 10 9 8 7 6 7 7 6 6 6 7 11 13 8 7 11 13 10 7 5 2 6 12 9 8 9 5 5 7 6 6 5 5 5 5 6 6 6 6
10 7 5 7 8 9 8 8 9 10 5 3 4 3 4 6 8 9 7 8 13 11 6 3 4 3 2 1 2 4 6 8 8 7 8 7 7 6 7 7 8 11 11 10 8 7 8 10 11 11 13 15 14 14 13 7 4 3 4 7 8 8 7 7 7 7 6 6 5 8 12 12 9 10 13 13 8 5 5 12 14 7 7 8 3 4 7 6 5 5 5 5 5 5 5 5 4
13 12 8 7 8 9 11 9 8 10 8 4 4 3 3 4 5 6 8 7 7 6 4 4 3 2 3 3 3 4 5 6 6 6 7 7 7 8 8 9 8 9 11 11 8 7 8 9 11 13 13 10 10 11 7 2 3 6 9 11 10 9 10 8 6 7 7 7 7 7 10 13 13 12 11 10 7 8 12 13 9 6 7 7 4 6 7 5 5 5 5 6 5 5 4 4 4
13 13 10 8 7 9 12 10 9 9 8 5 4 5 4 4 4 4 5 5 5 8 8 7 6 4 4 4 3 4 4 5 6 5 6 7 9 10 8 7 8 9 10 12 10 7 8 10 11 11 11 10 8 8 6 3 3 6 10 9 7 9 10 7 6 7 6 6 7 6 10 14 13 11 9 9 11 13 13 8 4 6 8 6 6 6 5 5 5 5 5 5 4 4 4 4 5
13 13 11 9 7 8 12 12 10 8 8 6 4 5 4 2 3 4 3 3 2 5 7 7 7 5 3 4 3 3 3 3 5 6 7 9 9 7 6 6 8 10 9 10 11 9 10 13 13 11 9 8 5 7 7 5 5 6 9 8 7 9 7 5 8 9 7 8 8 10 14 16 14 13 13 14 15 13 10 6 4 6 7 6 6 6 5 4 4 4 5 4 4 5 5 6 6
13 13 12 11 8 7 11 12 10 9 8 6 4 6 6 4 3 3 1 2 3 3 4 5 6 5 3 3 3 3 4 5 6 8 8 7 5 4 6 7 9 11 10 10 11 11 12 14 15 12 8 6 6 9 9 7 6 8 16 18 12 8 6 7 11 11 12 11 11 14 14 14 15 15 14 14 12 8 7 5 4 6 6 6 5 4 4 4 4 4 4 5 5 6 6 6 6
11 12 11 11 11 9 10 12 9 8 9 7 5 4 6 6 2 1 0 1 3 2 2 4 4 5 4 4 5 5 4 6 8 8 8 5 5 7 7 8 10 10 9 9 9 9 12 14 14 12 11 11 11 11 9 6 5 9 23 28 15 6 5 9 13 14 14 12 13 16 14 14 15 8 5 7 5 4 6 5 5 6 5 5 5 4 4 4 5 5 5 5 5 6 6 6 6
10 10 11 10 12 12 11 13 10 8 9 8 5 3 5 6 4 2 2 2 2 2 2 3 4 4 5 5 5 6 5 6 8 6 6 7 7 7 7 8 8 9 9 9 9 9 11 13 13 13 12 9 8 7 6 5 5 10 22 23 9 2 7 12 15 13 11 12 14 14 14 15 11 1 2 6 3 4 7 6 5 5 5 5 5 4 4 5 5 5 5 5 5 6 7 6 6
11 10 10 9 11 12 12 11 9 8 8 7 6 4 4 4 4 3 3 3 2 3 4 4 6 6 7 7 6 5 5 6 7 5 7 6 5 5 7 9 9 9 9 7 9 9 9 13 15 15 12 8 6 5 6 10 10 12 16 13 3 2 10 15 16 12 9 11 13 13 17 18 11 5 6 5 3 6 7 5 5 5 5 5 5 4 4 5 4 4 4 5 6 5 6 7 8
10 11 10 10 10 10 12 11 9 9 8 9 8 4 4 4 3 3 3 3 2 3 4 4 6 5 4 5 4 6 8 8 7 5 7 4 4 7 7 8 8 8 8 7 10 10 10 13 13 14 12 8 5 5 15 20 14 14 13 7 5 8 14 16 15 10 8 14 16 15 16 15 11 9 7 5 6 7 6 5 5 5 5 4 4 4 4 4 4 5 5 6 5 5 6 7 8
10 12 11 11 11 10 11 11 9 10 9 9 9 6 5 4 4 4 1 1 2 3 2 -1 -2 -1 0 3 5 9 10 8 7 7 9 7 7 8 6 7 8 7 8 10 12 12 13 13 13 15 8 5 10 9 15 17 8 12 19 13 11 14 16 14 12 12 16 21 16 6 3 6 9 8 7 8 8 6 4 4 4 4 4 4 4 4 4 4 5 6 5 5 5 6 7 7 6
11 13 13 10 11 12 12 12 11 11 9 8 9 7 6 4 3 5 3 1 1 3 5 5 5 6 6 7 9 12 9 7 9 11 9 6 6 5 6 9 10 11 11 12 13 12 13 13 13 13 3 7 22 11 5 11 8 11 15 13 14 16 17 15 16 19 20 15 5 -1 3 7 8 7 7 8 6 5 4 4 4 4 4 4 4 4 5 6 6 6 6 6 6 6 6 5 5
12 12 12 9 10 11 11 13 12 11 13 12 10 6 5 5 1 2 3 2 1 4 9 11 13 16 15 10 8 9 9 10 11 10 5 3 5 5 7 11 13 14 11 10 11 9 10 11 13 13 1 8 23 12 5 12 15 15 12 11 16 19 20 20 18 14 5 -0 -1 4 9 8 7 8 7 6 5 5 4 4 4 3 3 4 5 5 6 6 6 7 7 6 5 5 5 4 4
14 12 11 9 9 9 9 11 13 16 19 16 11 7 5 5 3 2 3 4 6 12 17 14 7 11 20 22 19 14 13 13 9 5 2 3 5 5 9 14 14 12 8 9 9 7 8 8 10 12 6 11 18 10 10 12 10 13 11 12 18 18 16 13 5 -2 -6 -1 6 9 10 8 8 7 6 5 4 4 5 4 4 3 4 5 5 6 7 7 7 6 5 4 4 4 3 3 3
14 11 10 8 7 9 8 10 14 17 17 13 10 10 8 6 4 3 3 6 6 2 6 9 1 3 17 24 23 15 9 9 5 2 4 5 7 9 12 14 11 8 8 9 8 6 7 6 7 10 10 13 12 9 16 15 6 9 15 20 19 10 5 1 -4 -5 -1 6 10 11 10 8 7 5 4 4 4 4 4 3 4 5 6 6 7 7 7 6 5 4 3 3 4 4 3 3 3
13 8 7 5 3 6 6 6 9 10 9 10 11 11 10 8 5 4 4 8 12 6 -0 3 6 6 5 4 11 13 6 5 5 5 7 9 11 14 12 10 8 8 8 7 7 5 4 5 9 11 10 10 11 15 20 13 12 22 22 14 4 -2 -1 0 2 5 7 9 9 10 9 7 6 5 4 5 4 4 3 4 6 6 7 7 7 7 5 4 3 3 4 4 4 4 3 3 3
9 4 2 2 0 2 3 2 6 7 5 8 13 12 8 8 6 6 5 6 17 24 12 5 8 8 3 -2 2 12 11 6 4 4 5 9 12 13 11 10 10 9 8 7 6 5 6 8 10 11 11 11 12 15 15 14 20 19 6 -1 0 3 5 6 8 8 7 7 7 8 8 7 7 5 4 4 4 4 5 6 7 7 7 7 5 4 3 3 5 5 4 4 4 4 4 4 4
13 11 9 6 2 4 7 6 7 8 6 8 13 11 7 7 6 8 11 8 7 9 8 5 0 -1 7 6 1 12 14 -1 -3 3 5 8 13 13 12 12 13 12 9 8 7 8 9 9 9 10 13 13 10 8 11 15 11 -3 -6 6 13 10 8 7 7 7 7 6 7 7 7 6 5 4 4 4 4 6 7 7 8 7 6 3 2 3 5 6 6 5 5 4 4 4 4 5 7
15 13 5 1 5 11 14 9 6 6 7 11 12 7 6 7 6 7 12 10 -1 -5 -0 2 -4 -4 7 7 1 13 13 -8 -7 6 6 6 11 15 14 13 15 13 9 10 10 9 10 12 16 20 19 15 12 10 11 10 5 2 9 14 11 8 8 7 7 8 7 6 7 6 6 5 4 4 5 5 7 8 8 8 7 5 2 2 4 6 6 6 5 5 5 4 4 4 5 7 9
16 7 -1 7 15 14 13 8 5 6 6 10 10 6 7 7 7 8 8 9 8 5 2 -2 -3 0 7 9 10 19 18 3 2 7 5 7 11 13 13 13 14 13 10 10 10 11 17 23 27 26 19 12 10 10 10 11 12 14 15 10 8 8 7 6 7 7 6 5 5 5 4 4 4 5 7 8 9 9 7 6 4 2 3 4 6 6 6 5 5 5 4 4 4 4 6 9 9
15 7 8 21 15 4 9 9 7 7 3 6 10 8 6 6 8 7 1 2 5 4 0 -2 1 5 9 17 22 24 23 15 8 9 7 8 11 12 12 13 12 11 9 9 12 15 17 20 19 14 10 8 7 10 12 14 14 13 10 8 8 7 6 7 7 6 5 5 4 4 5 6 7 8 9 9 7 5 4 4 3 3 4 4 5 5 5 5 4 4 4 3 4 5 9 9 8
15 14 15 17 7 1 9 7 5 6 2 3 8 8 6 6 10 12 7 5 3 -0 -4 -6 2 15 22 28 26 18 16 13 8 11 10 6 11 16 14 12 11 8 7 10 12 10 7 8 7 6 7 10 12 16 16 14 10 8 8 8 6 6 5 6 5 5 6 5 5 6 7 9 10 8 7 5 4 4 4 4 4 4 4 5 6 5 5 5 4 4 4 3 5 8 9 8 9
13 15 13 9 5 6 7 3 2 4 3 5 8 7 5 4 9 14 13 13 10 2 -5 -5 7 19 23 25 22 12 9 9 9 10 9 9 14 17 13 10 8 5 6 10 10 5 4 6 7 8 11 13 13 14 13 10 8 6 6 5 4 4 4 5 6 6 6 6 7 9 10 10 8 4 3 3 4 4 4 4 5 4 5 6 6 6 5 5 4 4 4 5 8 9 7 9 12
10 10 9 7 7 7 5 1 -2 -1 4 8 9 11 8 4 7 12 13 14 11 1 -3 4 12 15 18 18 12 6 6 8 10 9 8 11 12 13 12 9 7 5 5 7 7 6 6 8 10 11 12 10 9 11 12 9 6 4 4 3 3 4 5 5 5 5 6 8 9 9 9 7 4 3 3 3 4 4 3 4 4 5 6 6 6 6 6 5 5 5 4 7 9 7 8 13 14
15 13 12 8 6 5 3 1 -4 -3 4 7 8 13 15 8 4 6 12 12 8 7 9 12 13 14 15 13 7 7 9 10 11 9 7 9 10 10 9 7 7 7 6 6 6 6 8 9 9 10 10 9 8 11 12 8 5 3 2 3 3 4 3 2 3 5 8 8 8 7 6 5 4 4 2 2 3 4 4 4 5 5 6 6 7 7 6 6 6 5 6 9 9 9 13 14 12
Height
5861 5861 5863 5863 5864 5865 5867 5869 5870 5871 5872 5873 5874 5876 5878 5879 5879 5879 5878 5879 5880 5879 5877 5877 5877 5878 5878 5878 5880 5881 5882 5883 5883 5883 5883 5883 5883 5883 5884 5884 5883 5881 5880 5880 5880 5879 5878 5877 5877 5876 5875 5874 5873 5872 5871 5870 5869 5868 5868 5867 5867 5867 5866 5866 5866 5866 5865 5865 5864 5863 5862 5862 5861 5859 5858 5857 5856 5855 5854 5853 5852 5852 5851 5851 5850 5849 5849 5848 5847 5847 5846 5845 5845 5844 5844 5843 5842
5859 5859 5861 5861 5862 5863 5865 5867 5867 5869 5871 5872 5873 5875 5876 5877 5878 5878 5876 5876 5878 5878 5877 5876 5876 5877 5877 5877 5878 5879 5880 5881 5881 5882 5881 5881 5882 5882 5882 5882 5881 5880 5879 5879 5879 5878 5877 5876 5876 5875 5874 5873 5873 5872 5871 5870 5869 5868 5868 5867 5867 5867 5867 5866 5866 5866 5865 5865 5864 5863 5863 5862 5861 5860 5859 5858 5857 5856 5855 5854 5853 5852 5852 5851 5850 5850 5849 5848 5848 5847 5846 5846 5845 5844 5844 5843 5842
5856 5857 5858 5859 5860 5861 5862 5864 5865 5866 5868 5871 5873 5874 5874 5875 5876 5876 5875 5874 5875 5876 5877 5876 5877 5877 5876 5875 5875 5876 5878 5879 5880 5880 5880 5880 5881 5881 5881 5880 5879 5879 5878 5878 5877 5876 5876 5875 5875 5874 5874 5873 5872 5871 5870 5869 5869 5868 5868 5867 5867 5867 5867 5867 5866 5866 5865 5865 5864 5863 5863 5862 5861 5860 5859 5858 5857 5856 5855 5854 5853 5852 5852 5851 5851 5850 5849 5849 5848 5847 5847 5846 5845 5845 5844 5843 5842
5853 5855 5856 5857 5858 5859 5860 5862 5863 5864 5866 5869 5872 5873 5873 5873 5874 5874 5874 5873 5872 5874 5875 5876 5877 5877 5876 5875 5875 5876 5877 5878 5878 5879 5879 5880 5880 5880 5879 5879 5878 5878 5877 5877 5876 5875 5875 5874 5874 5873 5873 5872 5871 5871 5870 5869 5869 5868 5868 5867 5867 5867 5867 5867 5866 5866 5865 5865 5864 5863 5863 5862 5861 5860 5859 5858 5857 5857 5855 5854 5853 5853 5852 5852 5851 5850 5850 5849 5848 5848 5847 5846 5846 5845 5844 5843 5843
5850 5852 5853 5854 5855 5856 5857 5859 5861 5863 5864 5867 5870 5872 5872 5872 5873 5872 5873 5872 5871 5871 5873 5875 5877 5877 5876 5876 5876 5877 5876 5877 5877 5877 5878 5879 5879 5879 5878 5877 5876 5877 5876 5875 5874 5874 5873 5873 5873 5872 5872 5871 5870 5870 5869 5869 5868 5868 5868 5867 5867 5867 5866 5866 5866 5866 5865 5864 5864 5863 5863 5862 5861 5860 5859 5858 5858 5857 5856 5855 5854 5853 5853 5852 5851 5851 5850 5849 5849 5848 5847 5846 5846 5845 5844 5844 5843
5847 5849 5850 5851 5852 5853 5854 5856 5858 5861 5863 5865 5868 5871 5871 5871 5871 5871 5871 5871 5870 5870 5871 5873 5875 5876 5875 5876 5877 5876 5876 5876 5875 5875 5876 5877 5877 5877 5875 5875 5875 5875 5874 5873 5873 5872 5872 5872 5871 5871 5871 5870 5869 5869 5869 5868 5868 5868 5867 5867 5867 5866 5866 5866 5866 5866 5865 5864 5864 5863 5863 5862 5861 5860 5859 5858 5858 5857 5856 5855 5854 5853 5853 5852 5852 5851 5850 5850 5849 5848 5847 5847 5846 5845 5844 5844 5843
5844 5846 5847 5848 5849 5850 5851 5853 5856 5859 5861 5863 5866 5869 5870 5870 5870 5869 5870 5871 5871 5870 5870 5871 5872 5873 5873 5874 5875 5874 5874 5874 5874 5874 5875 5875 5875 5874 5873 5873 5873 5873 5873 5872 5871 5871 5871 5870 5870 5870 5870 5869 5869 5868 5868 5868 5868 5867 5867 5867 5866 5866 5866 5866 5866 5865 5865 5864 5864 5863 5863 5862 5861 5860 5859 5858 5857 5857 5856 5855 5854 5853 5853 5852 5851 5851 5850 5849 5849 5848 5847 5847 5846 5845 5844 5844 5843
5842 5843 5844 5845 5845 5846 5848 5850 5854 5856 5859 5861 5863 5867 5868 5868 5868 5868 5869 5869 5870 5869 5869 5870 5869 5870 5870 5872 5873 5872 5872 5872 5872 5873 5873 5873 5872 5872 5871 5871 5872 5871 5871 5870 5869 5869 5869 5869 5869 5869 5869 5868 5868 5868 5867 5867 5867 5867 5866 5866 5866 5866 5866 5865 5865 5865 5864 5864 5863 5863 5863 5862 5861 5860 5859 5858 5857 5856 5855 5855 5854 5853 5853 5852 5851 5851 5850 5849 5849 5848 5848 5847 5846 5845 5845 5844 5843
5838 5839 5840 5842 5842 5843 5845 5847 5851 5854 5857 5859 5861 5864 5865 5866 5866 5867 5868 5868 5869 5869 5868 5868 5867 5867 5868 5871 5871 5870 5870 5870 5871 5871 5871 5871 5870 5870 5869 5869 5870 5870 5869 5868 5868 5868 5868 5868 5869 5868 5868 5868 5867 5867 5867 5866 5866 5866 5865 5865 5865 5865 5865 5864 5864 5864 5864 5863 5863 5863 5862 5862 5861 5860 5859 5858 5857 5856 5855 5854 5853 5853 5852 5852 5851 5850 5850 5849 5849 5848 5848 5847 5846 5846 5845 5844 5843
5835 5836 5837 5839 5839 5840 5842 5845 5849 5852 5855 5857 5858 5860 5862 5864 5865 5865 5866 5867 5868 5867 5866 5865 5864 5865 5866 5868 5869 5868 5868 5869 5869 5869 5869 5869 5868 5868 5868 5868 5868 5867 5867 5867 5867 5867 5867 5867 5868 5867 5867 5867 5866 5866 5865 5865 5865 5864 5864 5864 5864 5864 5864 5863 5863 5863 5863 5863 5862 5862 5862 5861 5860 5859 5859 5858 5857 5856 5855 5854 5853 5852 5852 5851 5851 5850 5850 5849 5849 5848 5848 5847 5846 5846 5845 5844 5843
5831 5832 5834 5835 5835 5836 5839 5843 5847 5850 5852 5853 5855 5858 5860 5861 5862 5863 5864 5866 5866 5864 5863 5862 5861 5863 5864 5865 5865 5865 5866 5867 5867 5867 5866 5865 5866 5866 5866 5866 5865 5865 5865 5865 5865 5865 5865 5866 5866 5867 5867 5866 5865 5865 5864 5864 5863 5863 5862 5862 5862 5863 5862 5862 5862 5862 5862 5862 5862 5862 5861 5861 5860 5859 5858 5857 5856 5855 5854 5853 5852 5852 5851 5851 5850 5850 5849 5849 5849 5848 5848 5847 5846 5846 5845 5844 5843
5827 5829 5830 5830 5831 5833 5836 5840 5843 5847 5849 5850 5853 5856 5857 5858 5860 5861 5862 5864 5864 5861 5860 5860 5859 5860 5860 5861 5862 5863 5864 5865 5865 5864 5863 5863 5863 5864 5864 5863 5862 5862 5862 5862 5863 5863 5864 5865 5865 5866 5866 5865 5865 5864 5863 5862 5862 5861 5861 5861 5861 5861 5861 5861 5861 5861 5861 5861 5861 5861 5861 5861 5860 5859 5858 5857 5856 5855 5854 5853 5852 5851 5851 5850 5850 5850 5849 5849 5848 5848 5847 5847 5846 5846 5845 5844 5843
5823 5825 5827 5825 5827 5830 5833 5835 5839 5843 5844 5847 5851 5854 5855 5855 5857 5858 5859 5861 5861 5859 5858 5858 5856 5857 5857 5858 5859 5861 5862 5862 5862 5861 5860 5860 5861 5861 5862 5861 5860 5860 5860 5860 5861 5862 5863 5864 5864 5865 5865 5864 5864 5863 5862 5861 5860 5860 5860 5860 5860 5860 5860 5860 5860 5860 5860 5860 5860 5860 5860 5860 5859 5859 5858 5857 5856 5855 5854 5853 5852 5851 5850 5850 5849 5849 5849 5849 5848 5848 5847 5847 5846 5845 5845 5844 5843
5819 5821 5822 5821 5822 5826 5828 5830 5835 5838 5841 5846 5850 5851 5852 5853 5854 5855 5856 5858 5859 5857 5856 5856 5855 5855 5854 5855 5857 5858 5859 5859 5858 5858 5858 5858 5858 5859 5859 5859 5859 5859 5859 5859 5860 5860 5862 5863 5863 5864 5864 5863 5862 5861 5860 5860 5859 5859 5859 5859 5859 5859 5859 5859 5859 5859 5859 5859 5860 5860 5859 5859 5859 5858 5857 5856 5855 5854 5853 5852 5851 5851 5850 5850 5849 5849 5849 5848 5848 5848 5847 5847 5846 5845 5844 5844 5843
5815 5817 5817 5816 5816 5820 5824 5827 5832 5834 5838 5845 5848 5849 5850 5850 5851 5851 5852 5854 5855 5853 5852 5853 5853 5852 5852 5854 5855 5854 5855 5855 5855 5854 5854 5854 5856 5857 5857 5857 5858 5858 5858 5858 5859 5859 5860 5861 5861 5862 5862 5861 5861 5860 5859 5859 5859 5859 5859 5858 5858 5858 5858 5858 5858 5858 5858 5859 5859 5859 5859 5858 5858 5858 5857 5856 5855 5854 5853 5852 5851 5850 5850 5849 5849 5848 5848 5848 5848 5847 5847 5846 5846 5845 5844 5844 5843
5811 5812 5812 5810 5811 5815 5820 5824 5829 5831 5836 5844 5846 5847 5847 5847 5848 5848 5850 5850 5850 5849 5849 5851 5851 5851 5851 5851 5851 5851 5852 5852 5851 5851 5851 5852 5853 5854 5855 5856 5857 5858 5857 5857 5857 5857 5858 5858 5859 5859 5859 5859 5859 5858 5858 5858 5858 5858 5858 5857 5857 5857 5857 5856 5856 5857 5857 5858 5858 5858 5858 5858 5858 5857 5857 5856 5855 5854 5853 5852 5851 5850 5849 5849 5848 5848 5848 5847 5847 5847 5847 5846 5846 5845 5845 5844 5843
5806 5807 5806 5804 5806 5811 5817 5822 5826 5829 5835 5841 5843 5843 5842 5844 5846 5845 5847 5847 5846 5845 5846 5847 5848 5847 5847 5847 5847 5848 5849 5849 5849 5849 5849 5849 5851 5853 5853 5854 5855 5856 5855 5855 5855 5855 5855 5855 5856 5856 5856 5856 5856 5857 5857 5857 5858 5857 5856 5856 5856 5856 5855 5855 5855 5856 5856 5856 5857 5857 5857 5857 5857 5857 5856 5855 5854 5853 5853 5851 5850 5849 5849 5848 5848 5847 5847 5847 5847 5847 5846 5846 5845 5845 5845 5844 5843
5800 5801 5800 5799 5802 5808 5815 5821 5825 5828 5832 5836 5838 5839 5839 5841 5844 5842 5843 5843 5842 5842 5842 5843 5844 5843 5842 5843 5843 5845 5846 5846 5847 5846 5847 5848 5849 5850 5851 5852 5853 5852 5852 5853 5853 5853 5853 5853 5853 5853 5853 5854 5854 5855 5855 5856 5856 5855 5855 5855 5855 5855 5854 5854 5854 5855 5855 5855 5855 5856 5856 5856 5856 5856 5856 5855 5854 5853 5852 5851 5850 5849 5848 5848 5847 5847 5846 5846 5846 5846 5846 5846 5845 5845 5844 5844 5843
5795 5796 5795 5795 5800 5807 5814 5819 5822 5825 5828 5831 5834 5834 5835 5838 5840 5838 5838 5839 5838 5838 5838 5840 5840 5838 5838 5840 5841 5842 5844 5844 5844 5844 5846 5847 5846 5847 5847 5849 5850 5850 5851 5852 5851 5851 5851 5850 5850 5850 5850 5851 5851 5852 5853 5854 5854 5853 5854 5854 5854 5854 5854 5854 5854 5854 5854 5854 5854 5855 5856 5856 5856 5855 5855 5855 5854 5853 5852 5851 5850 5849 5848 5847 5847 5846 5846 5846 5846 5846 5845 5845 5845 5844 5844 5844 5843
5790 5792 5790 5792 5800 5806 5811 5815 5818 5821 5824 5828 5830 5830 5832 5835 5835 5834 5834 5834 5834 5834 5835 5836 5836 5834 5835 5837 5838 5840 5841 5841 5842 5842 5844 5844 5843 5842 5843 5846 5848 5849 5849 5849 5849 5849 5849 5848 5848 5848 5849 5849 5850 5850 5851 5851 5851 5851 5852 5853 5854 5854 5854 5854 5853 5853 5853 5853 5854 5855 5855 5855 5855 5855 5855 5854 5854 5853 5852 5850 5849 5849 5848 5847 5846 5846 5846 5845 5845 5845 5845 5844 5844 5844 5843 5843 5842
5785 5786 5787 5793 5800 5803 5808 5812 5815 5818 5820 5823 5825 5826 5828 5830 5830 5830 5830 5830 5830 5831 5832 5833 5833 5832 5832 5833 5834 5836 5838 5838 5839 5839 5841 5842 5841 5840 5841 5844 5847 5847 5847 5847 5847 5847 5847 5847 5846 5847 5848 5848 5848 5849 5849 5848 5848 5849 5851 5852 5852 5853 5853 5853 5853 5852 5852 5852 5853 5854 5854 5855 5854 5854 5854 5853 5853 5852 5851 5850 5849 5848 5847 5847 5846 5846 5845 5845 5845 5844 5844 5844 5843 5843 5842 5842 5842
5781 5783 5787 5793 5796 5799 5805 5809 5812 5815 5816 5819 5821 5822 5825 5826 5826 5826 5826 5826 5827 5828 5829 5830 5830 5830 5829 5830 5831 5833 5834 5835 5835 5836 5838 5840 5841 5841 5841 5842 5843 5844 5845 5845 5845 5845 5846 5845 5845 5845 5846 5847 5847 5847 5847 5847 5847 5849 5850 5850 5851 5852 5852 5852 5852 5851 5851 5851 5852 5853 5853 5853 5853 5853 5853 5853 5852 5852 5851 5850 5849 5848 5847 5846 5846 5845 5845 5844 5844 5844 5843 5843 5843 5842 5842 5841 5841
5778 5782 5785 5789 5792 5796 5803 5806 5807 5810 5812 5815 5817 5819 5821 5821 5821 5822 5822 5822 5823 5824 5826 5828 5828 5827 5827 5828 5828 5829 5830 5831 5832 5834 5835 5837 5841 5840 5838 5838 5839 5840 5842 5844 5844 5844 5844 5843 5843 5845 5846 5845 5846 5846 5845 5846 5847 5848 5849 5849 5850 5851 5851 5851 5851 5850 5850 5851 5851 5851 5851 5852 5852 5852 5852 5852 5851 5851 5851 5850 5849 5848 5846 5846 5845 5844 5844 5844 5843 5843 5843 5842 5842 5841 5841 5841 5840
5774 5778 5782 5785 5789 5794 5799 5802 5803 5806 5808 5811 5812 5814 5817 5817 5817 5818 5819 5819 5819 5821 5823 5825 5826 5825 5824 5825 5826 5826 5827 5829 5830 5831 5833 5837 5839 5837 5837 5837 5837 5838 5841 5843 5843 5843 5842 5841 5843 5844 5844 5844 5844 5845 5845 5846 5847 5848 5848 5848 5849 5849 5849 5850 5850 5850 5849 5850 5850 5850 5850 5850 5850 5850 5851 5851 5851 5850 5850 5849 5848 5847 5846 5845 5845 5844 5844 5843 5842 5842 5842 5841 5841 5840 5840 5840 5839
5770 5775 5778 5781 5786 5790 5795 5798 5799 5802 5804 5806 5807 5810 5813 5813 5813 5814 5816 5816 5816 5818 5820 5823 5824 5822 5821 5822 5824 5824 5825 5826 5828 5829 5831 5836 5837 5835 5835 5836 5837 5838 5841 5842 5842 5841 5839 5840 5842 5842 5841 5841 5843 5843 5844 5846 5846 5847 5847 5847 5847 5848 5848 5849 5849 5849 5848 5849 5849 5848 5848 5849 5849 5849 5849 5850 5850 5849 5849 5848 5847 5847 5846 5845 5845 5844 5843 5843 5842 5841 5841 5840 5840 5839 5839 5838 5838
5767 5771 5774 5777 5782 5787 5791 5794 5796 5799 5800 5802 5803 5806 5809 5809 5809 5810 5812 5813 5813 5814 5818 5821 5821 5819 5819 5820 5821 5822 5822 5823 5826 5828 5830 5835 5836 5834 5833 5834 5836 5838 5839 5840 5840 5838 5837 5837 5839 5839 5838 5840 5841 5842 5843 5844 5844 5845 5845 5846 5846 5846 5847 5847 5848 5848 5847 5847 5847 5846 5846 5847 5847 5848 5848 5848 5848 5848 5848 5847 5846 5846 5845 5845 5844 5844 5843 5842 5841 5841 5840 5840 5839 5839 5838 5838 5837
5762 5765 5769 5773 5779 5784 5786 5789 5793 5795 5796 5797 5799 5802 5805 5804 5804 5806 5809 5810 5810 5812 5816 5819 5818 5816 5816 5818 5819 5819 5820 5822 5824 5826 5828 5833 5834 5832 5832 5832 5834 5835 5837 5839 5838 5836 5834 5834 5835 5837 5837 5839 5840 5841 5842 5842 5842 5842 5843 5844 5845 5845 5845 5846 5846 5846 5846 5845 5845 5844 5844 5845 5845 5846 5846 5846 5846 5846 5846 5846 5845 5845 5845 5844 5843 5843 5842 5841 5841 5840 5840 5839 5839 5839 5838 5837 5836
5756 5759 5765 5769 5774 5778 5781 5785 5789 5790 5792 5794 5795 5797 5799 5799 5799 5802 5805 5806 5808 5810 5813 5815 5815 5815 5815 5817 5818 5818 5819 5821 5823 5824 5826 5829 5831 5830 5830 5830 5831 5833 5834 5836 5836 5834 5833 5832 5833 5834 5836 5837 5838 5840 5840 5840 5839 5839 5841 5842 5843 5843 5843 5844 5845 5845 5844 5844 5843 5843 5843 5843 5844 5844 5844 5844 5844 5844 5845 5844 5844 5844 5844 5843 5843 5842 5841 5840 5840 5839 5839 5838 5838 5837 5837 5836 5835
5751 5755 5760 5765 5768 5772 5776 5781 5785 5786 5788 5791 5791 5792 5793 5794 5796 5799 5801 5803 5806 5807 5809 5812 5814 5815 5815 5816 5817 5816 5817 5820 5821 5822 5823 5825 5827 5828 5828 5828 5829 5830 5831 5833 5833 5832 5832 5831 5831 5832 5833 5835 5836 5837 5837 5837 5837 5837 5839 5840 5841 5842 5842 5843 5843 5843 5843 5842 5841 5841 5841 5842 5842 5842 5842 5842 5842 5842 5842 5842 5842 5842 5842 5842 5841 5841 5840 5839 5839 5838 5838 5837 5837 5836 5836 5835 5835
5747 5751 5755 5760 5763 5767 5773 5777 5780 5782 5785 5788 5786 5786 5789 5791 5793 5796 5798 5801 5803 5805 5807 5810 5812 5814 5814 5814 5814 5815 5816 5818 5820 5820 5821 5822 5824 5825 5826 5826 5827 5828 5829 5830 5830 5830 5830 5829 5829 5829 5831 5832 5833 5834 5834 5835 5835 5836 5838 5839 5839 5840 5841 5841 5841 5841 5840 5840 5840 5839 5839 5840 5840 5840 5840 5840 5840 5840 5840 5840 5840 5840 5840 5839 5839 5839 5839 5838 5838 5837 5837 5836 5836 5835 5835 5835 5835
5744 5746 5750 5756 5758 5762 5770 5773 5776 5779 5783 5784 5782 5783 5787 5789 5790 5793 5796 5798 5801 5802 5805 5808 5811 5812 5812 5812 5813 5814 5815 5817 5818 5819 5820 5820 5821 5822 5823 5824 5825 5825 5826 5827 5827 5827 5827 5827 5827 5827 5828 5829 5831 5832 5832 5832 5833 5835 5836 5837 5837 5838 5839 5839 5839 5838 5838 5838 5837 5837 5837 5837 5838 5838 5838 5839 5839 5838 5838 5838 5838 5838 5838 5837 5837 5837 5837 5837 5836 5836 5836 5835 5834 5834 5834 5834 5834
5739 5741 5745 5751 5753 5759 5767 5769 5772 5777 5780 5780 5778 5779 5784 5786 5788 5791 5794 5796 5798 5801 5804 5806 5808 5809 5809 5810 5811 5813 5814 5816 5817 5817 5818 5818 5818 5819 5821 5822 5822 5823 5823 5824 5824 5824 5825 5825 5825 5825 5826 5827 5828 5829 5830 5831 5832 5833 5833 5834 5835 5836 5836 5836 5836 5836 5835 5835 5835 5835 5835 5835 5836 5836 5837 5837 5837 5837 5837 5836 5836 5836 5836 5836 5836 5836 5836 5835 5835 5835 5835 5834 5833 5832 5832 5833 5832
5733 5737 5742 5747 5750 5755 5762 5765 5769 5775 5776 5775 5775 5777 5782 5785 5786 5789 5791 5793 5796 5799 5802 5804 5805 5806 5807 5808 5810 5812 5813 5814 5815 5816 5816 5816 5816 5817 5818 5819 5820 5820 5821 5821 5821 5821 5822 5823 5823 5824 5824 5825 5826 5827 5828 5829 5830 5831 5831 5831 5832 5833 5833 5833 5833 5833 5833 5833 5833 5833 5833 5833 5834 5834 5835 5835 5835 5835 5835 5835 5835 5835 5834 5834 5834 5834 5834 5834 5834 5834 5833 5832 5831 5831 5831 5831 5830
5728 5733 5736 5741 5745 5751 5757 5761 5766 5771 5771 5772 5773 5775 5780 5783 5785 5787 5789 5791 5795 5798 5800 5801 5802 5803 5805 5806 5808 5810 5812 5813 5814 5814 5814 5814 5814 5815 5816 5817 5818 5818 5818 5818 5819 5819 5820 5820 5821 5822 5822 5823 5823 5824 5825 5826 5827 5828 5828 5829 5829 5830 5830 5830 5830 5830 5830 5830 5830 5830 5830 5831 5831 5832 5832 5833 5833 5833 5833 5834 5834 5834 5833 5833 5832 5832 5832 5832 5832 5832 5831 5830 5830 5829 5829 5829 5828
5725 5728 5731 5735 5741 5747 5754 5759 5763 5767 5768 5770 5771 5773 5778 5782 5783 5785 5786 5790 5794 5796 5798 5799 5800 5801 5802 5804 5806 5808 5809 5810 5811 5812 5812 5812 5812 5813 5814 5814 5815 5816 5816 5816 5817 5817 5817 5818 5819 5820 5820 5820 5821 5821 5823 5824 5825 5825 5826 5826 5826 5826 5826 5826 5826 5827 5827 5828 5828 5828 5828 5828 5828 5829 5830 5830 5831 5831 5832 5832 5832 5833 5832 5832 5831 5831 5831 5831 5830 5830 5830 5829 5828 5828 5827 5826 5825
5722 5726 5730 5734 5739 5745 5752 5757 5761 5764 5766 5767 5768 5772 5777 5780 5781 5783 5785 5789 5792 5794 5796 5796 5798 5799 5801 5802 5804 5806 5807 5808 5809 5809 5809 5810 5810 5811 5811 5812 5813 5813 5814 5814 5814 5815 5815 5816 5817 5817 5818 5818 5818 5819 5821 5822 5822 5823 5823 5823 5823 5823 5823 5823 5824 5825 5825 5826 5826 5826 5825 5825 5826 5827 5827 5828 5829 5829 5830 5831 5831 5831 5831 5831 5830 5830 5829 5829 5829 5829 5828 5827 5826 5826 5825 5824 5823
5719 5723 5728 5733 5737 5743 5750 5754 5758 5761 5763 5765 5767 5771 5776 5778 5779 5781 5783 5787 5789 5791 5793 5795 5796 5797 5798 5800 5802 5803 5804 5806 5807 5807 5807 5807 5808 5809 5809 5810 5811 5811 5812 5812 5812 5812 5812 5813 5814 5815 5815 5816 5817 5817 5818 5819 5820 5820 5820 5820 5820 5821 5821 5821 5822 5823 5823 5823 5823 5823 5823 5823 5824 5825 5825 5826 5827 5827 5828 5829 5829 5829 5829 5829 5829 5828 5828 5828 5827 5827 5826 5826 5825 5824 5823 5822 5822
5716 5720 5724 5729 5734 5740 5746 5751 5755 5757 5760 5762 5764 5768 5773 5776 5777 5778 5781 5784 5786 5788 5790 5792 5793 5794 5796 5798 5799 5801 5802 5804 5805 5805 5805 5805 5805 5806 5806 5807 5808 5809 5809 5810 5810 5810 5810 5811 5812 5813 5813 5814 5814 5815 5816 5816 5816 5817 5817 5817 5818 5819 5819 5819 5820 5820 5820 5820 5821 5820 5820 5821 5822 5823 5824 5824 5825 5825 5826 5827 5827 5828 5828 5828 5827 5827 5826 5826 5826 5825 5824 5824 5823 5823 5822 5821 5820
5713 5716 5720 5725 5730 5736 5742 5747 5751 5753 5756 5758 5761 5765 5770 5772 5774 5776 5778 5781 5783 5785 5786 5788 5790 5792 5794 5796 5797 5798 5799 5801 5802 5802 5803 5803 5803 5804 5804 5804 5805 5806 5807 5807 5808 5808 5808 5809 5810 5811 5811 5812 5812 5812 5813 5813 5813 5813 5813 5814 5815 5816 5816 5817 5817 5817 5817 5818 5818 5818 5818 5819 5820 5821 5822 5823 5823 5824 5824 5825 5826 5826 5826 5826 5825 5825 5825 5824 5823 5822 5822 5821 5822 5821 5820 5819 5817
5709 5712 5717 5722 5727 5732 5738 5743 5747 5749 5752 5755 5758 5762 5766 5768 5770 5772 5774 5777 5779 5780 5782 5784 5787 5790 5792 5793 5794 5795 5797 5798 5799 5800 5800 5801 5801 5801 5802 5802 5803 5804 5805 5805 5806 5806 5807 5808 5808 5809 5809 5809 5810 5810 5810 5810 5810 5810 5810 5810 5811 5813 5813 5814 5814 5814 5815 5815 5815 5816 5816 5817 5818 5820 5821 5821 5822 5822 5823 5824 5824 5825 5825 5824 5824 5823 5823 5822 5820 5820 5820 5820 5820 5820 5818 5817 5815
5705 5709 5713 5719 5724 5728 5734 5740 5743 5745 5748 5752 5755 5759 5761 5763 5766 5768 5771 5773 5775 5777 5779 5782 5785 5787 5789 5790 5792 5793 5794 5796 5796 5797 5798 5799 5799 5799 5800 5800 5801 5802 5802 5803 5804 5804 5805 5806 5806 5807 5807 5807 5808 5808 5807 5807 5807 5807 5807 5808 5809 5810 5811 5811 5811 5812 5812 5813 5813 5814 5814 5816 5817 5818 5819 5820 5821 5821 5822 5822 5823 5823 5823 5823 5822 5821 5820 5819 5818 5818 5818 5818 5818 5817 5816 5814 5812
5702 5705 5710 5716 5721 5725 5731 5736 5739 5742 5745 5749 5752 5754 5756 5759 5762 5764 5767 5770 5771 5774 5777 5780 5782 5784 5786 5787 5789 5790 5792 5793 5794 5795 5796 5796 5797 5798 5798 5799 5799 5800 5801 5801 5802 5803 5804 5804 5804 5804 5804 5805 5804 5804 5804 5804 5804 5804 5805 5806 5807 5808 5808 5808 5809 5810 5811 5811 5812 5812 5813 5814 5815 5816 5817 5819 5820 5820 5821 5821 5821 5821 5821 5821 5820 5819 5818 5817 5817 5817 5817 5816 5815 5813 5812 5811 5810
5699 5703 5708 5713 5717 5722 5727 5732 5736 5739 5742 5746 5749 5751 5753 5755 5758 5760 5764 5767 5769 5771 5774 5777 5779 5781 5783 5785 5787 5788 5790 5791 5791 5792 5793 5794 5795 5796 5796 5797 5797 5798 5799 5799 5800 5801 5801 5801 5802 5801 5801 5800 5800 5801 5802 5801 5801 5802 5803 5804 5805 5805 5806 5806 5807 5808 5809 5810 5810 5811 5811 5812 5813 5815 5816 5817 5818 5819 5819 5820 5819 5819 5819 5819 5818 5817 5816 5816 5816 5815 5814 5813 5811 5810 5808 5807 5806
5696 5701 5707 5710 5715 5719 5724 5729 5733 5736 5739 5742 5746 5748 5750 5752 5755 5759 5762 5764 5766 5769 5772 5775 5777 5780 5782 5784 5785 5786 5787 5788 5789 5790 5791 5792 5793 5794 5794 5795 5795 5796 5796 5797 5798 5799 5799 5799 5799 5798 5798 5798 5799 5800 5801 5800 5800 5801 5801 5802 5802 5803 5803 5804 5805 5807 5807 5808 5809 5810 5811 5812 5813 5814 5815 5816 5817 5818 5818 5817 5817 5817 5817 5816 5815 5815 5814 5814 5814 5813 5812 5810 5808 5807 5805 5803 5802
5694 5700 5704 5708 5713 5717 5722 5727 5731 5734 5736 5738 5741 5744 5745 5747 5751 5755 5757 5760 5763 5766 5771 5775 5777 5778 5779 5782 5783 5783 5784 5785 5787 5788 5789 5790 5791 5792 5792 5792 5793 5794 5794 5795 5796 5797 5797 5796 5797 5797 5797 5797 5799 5800 5801 5800 5800 5800 5800 5800 5801 5801 5802 5803 5804 5805 5806 5807 5809 5810 5810 5811 5812 5813 5814 5815 5815 5816 5816 5815 5815 5815 5815 5814 5814 5813 5813 5813 5812 5810 5809 5807 5806 5804 5802 5800 5799
5691 5698 5702 5706 5711 5715 5721 5725 5728 5732 5732 5734 5738 5739 5740 5742 5746 5749 5751 5755 5760 5767 5772 5774 5774 5775 5777 5779 5780 5781 5782 5783 5785 5786 5787 5788 5789 5790 5790 5790 5791 5792 5792 5793 5794 5795 5795 5795 5795 5795 5796 5796 5797 5799 5799 5799 5799 5798 5798 5798 5799 5800 5801 5802 5803 5804 5805 5806 5808 5809 5810 5810 5811 5812 5812 5813 5814 5814 5814 5814 5814 5813 5813 5812 5812 5811 5811 5811 5810 5808 5806 5805 5803 5801 5799 5797 5795
5689 5695 5699 5703 5708 5712 5717 5721 5725 5728 5727 5731 5735 5736 5737 5738 5740 5744 5747 5754 5762 5768 5771 5771 5771 5773 5775 5776 5777 5778 5780 5782 5783 5784 5785 5786 5787 5787 5788 5788 5789 5790 5790 5791 5792 5793 5793 5793 5793 5793 5794 5795 5796 5797 5797 5797 5797 5797 5796 5797 5798 5799 5800 5801 5802 5803 5804 5806 5807 5808 5809 5809 5810 5811 5811 5812 5812 5812 5812 5812 5812 5812 5811 5811 5810 5810 5809 5808 5807 5805 5803 5801 5799 5797 5795 5794 5792
5687 5692 5696 5701 5705 5710 5714 5717 5721 5723 5723 5729 5733 5734 5734 5733 5735 5741 5747 5755 5763 5766 5766 5767 5769 5771 5773 5774 5775 5777 5779 5780 5781 5782 5783 5784 5785 5785 5786 5787 5787 5788 5788 5789 5790 5791 5791 5791 5792 5792 5793 5794 5794 5795 5795 5795 5796 5796 5795 5796 5798 5799 5800 5801 5802 5803 5803 5805 5806 5807 5808 5809 5809 5810 5810 5810 5810 5811 5811 5811 5810 5810 5810 5809 5808 5808 5807 5805 5804 5802 5800 5797 5795 5793 5792 5790 5788
5683 5687 5691 5697 5702 5707 5710 5713 5717 5718 5721 5726 5730 5731 5730 5730 5734 5740 5747 5754 5759 5762 5764 5765 5767 5769 5770 5772 5774 5776 5777 5778 5779 5780 5782 5782 5783 5783 5784 5785 5785 5786 5787 5787 5788 5789 5789 5789 5790 5791 5791 5792 5792 5793 5793 5794 5794 5795 5795 5795 5797 5798 5799 5800 5801 5802 5802 5803 5805 5806 5807 5808 5808 5808 5809 5809 5809 5809 5809 5809 5809 5808 5808 5807 5806 5805 5804 5802 5800 5798 5796 5793 5791 5790 5788 5786 5785
5678 5682 5686 5691 5696 5700 5705 5709 5712 5715 5718 5724 5728 5728 5726 5728 5732 5739 5746 5752 5757 5761 5762 5762 5764 5766 5768 5770 5772 5773 5775 5776 5777 5779 5780 5780 5781 5781 5782 5783 5783 5784 5785 5786 5787 5787 5787 5788 5788 5789 5790 5790 5791 5792 5793 5793 5793 5793 5794 5795 5796 5796 5798 5799 5800 5800 5801 5802 5803 5805 5806 5806 5807 5807 5807 5808 5808 5808 5807 5807 5807 5806 5806 5805 5804 5802 5800 5799 5796 5794 5792 5790 5788 5786 5785 5783 5781
5677 5681 5685 5689 5693 5697 5701 5705 5708 5711 5715 5721 5725 5724 5723 5725 5730 5738 5747 5751 5754 5756 5757 5759 5761 5763 5765 5767 5769 5771 5773 5774 5776 5777 5778 5778 5779 5779 5780 5781 5782 5783 5784 5784 5785 5785 5785 5786 5786 5787 5788 5789 5790 5791 5792 5792 5792 5792 5793 5794 5795 5795 5797 5798 5798 5799 5800 5801 5802 5804 5805 5805 5805 5806 5806 5806 5806 5806 5806 5805 5805 5804 5803 5802 5800 5799 5797 5795 5793 5790 5788 5786 5785 5783 5782 5780 5778
5676 5679 5683 5687 5692 5698 5702 5705 5708 5710 5714 5718 5721 5721 5721 5724 5730 5738 5746 5748 5748 5750 5753 5756 5758 5760 5763 5765 5767 5769 5771 5773 5774 5775 5776 5776 5777 5777 5778 5779 5780 5781 5782 5782 5783 5783 5783 5783 5784 5785 5786 5787 5789 5789 5790 5790 5790 5791 5792 5793 5793 5794 5795 5796 5797 5798 5799 5800 5801 5802 5803 5803 5804 5804 5804 5804 5804 5804 5803 5803 5802 5801 5800 5798 5797 5795 5793 5791 5789 5787 5785 5783 5782 5780 5779 5777 5774
5673 5676 5680 5686 5692 5697 5701 5704 5707 5710 5712 5715 5718 5719 5721 5724 5729 5736 5742 5742 5744 5746 5750 5754 5756 5758 5761 5763 5765 5766 5768 5770 5772 5773 5774 5774 5774 5775 5776 5778 5779 5779 5780 5781 5781 5782 5781 5781 5782 5783 5784 5785 5786 5787 5788 5788 5789 5789 5790 5791 5792 5793 5793 5794 5796 5797 5798 5799 5800 5801 5801 5801 5802 5801 5801 5802 5802 5801 5801 5800 5799 5798 5797 5795 5794 5792 5790 5788 5785 5783 5782 5780 5779 5777 5775 5773 5770
5672 5675 5680 5686 5690 5694 5699 5703 5706 5708 5710 5713 5716 5718 5719 5722 5727 5733 5738 5739 5741 5745 5748 5751 5754 5757 5759 5760 5761 5763 5765 5767 5769 5770 5771 5772 5772 5773 5775 5776 5777 5778 5779 5779 5780 5780 5780 5780 5781 5782 5783 5784 5785 5785 5786 5787 5787 5788 5789 5790 5790 5791 5792 5793 5795 5796 5796 5797 5798 5799 5799 5799 5799 5799 5799 5799 5799 5798 5798 5797 5796 5795 5794 5792 5790 5788 5786 5784 5782 5780 5779 5777 5775 5774 5772 5769 5766
5672 5676 5680 5684 5687 5691 5696 5699 5702 5705 5708 5711 5713 5716 5717 5720 5725 5731 5735 5738 5741 5743 5746 5750 5753 5755 5757 5758 5758 5760 5762 5765 5766 5768 5769 5770 5771 5772 5773 5774 5775 5776 5777 5778 5779 5779 5779 5780 5780 5781 5782 5783 5783 5784 5785 5786 5786 5787 5788 5788 5789 5790 5791 5792 5794 5794 5795 5796 5796 5796 5797 5797 5797 5797 5797 5797 5796 5796 5795 5794 5793 5792 5790 5789 5787 5785 5783 5781 5779 5777 5775 5774 5772 5770 5768 5765 5762
5668 5673 5678 5684 5687 5691 5694 5697 5700 5703 5706 5709 5711 5713 5715 5719 5724 5730 5734 5737 5740 5742 5745 5749 5753 5754 5755 5755 5757 5759 5761 5763 5765 5766 5767 5768 5769 5770 5771 5773 5774 5775 5776 5777 5777 5778 5779 5779 5779 5780 5781 5782 5782 5783 5784 5784 5785 5786 5786 5787 5788 5789 5790 5791 5792 5793 5793 5794 5794 5794 5795 5795 5794 5794 5794 5794 5794 5793 5792 5792 5790 5789 5787 5786 5784 5782 5780 5778 5776 5774 5772 5770 5768 5766 5763 5761 5758
5663 5667 5674 5681 5686 5690 5694 5697 5700 5703 5705 5708 5710 5712 5714 5719 5724 5729 5733 5736 5739 5741 5746 5750 5751 5752 5753 5754 5756 5758 5760 5761 5763 5764 5765 5766 5767 5768 5770 5771 5772 5773 5774 5775 5776 5777 5778 5778 5778 5779 5780 5781 5781 5782 5782 5783 5784 5784 5785 5786 5787 5788 5789 5790 5790 5791 5791 5792 5792 5792 5792 5792 5792 5792 5792 5792 5791 5791 5790 5789 5788 5786 5784 5783 5781 5779 5777 5775 5772 5770 5769 5767 5764 5762 5759 5757 5754
5664 5667 5673 5678 5682 5687 5691 5695 5699 5702 5704 5706 5708 5711 5715 5719 5724 5728 5732 5735 5738 5741 5746 5748 5749 5751 5752 5753 5755 5757 5758 5759 5760 5761 5763 5764 5765 5767 5769 5770 5771 5772 5773 5774 5775 5775 5776 5777 5777 5778 5779 5779 5780 5781 5781 5782 5782 5783 5784 5785 5786 5786 5787 5788 5788 5789 5789 5790 5790 5790 5789 5789 5789 5790 5790 5789 5789 5789 5788 5786 5785 5783 5781 5780 5778 5776 5773 5771 5769 5767 5765 5763 5760 5758 5755 5753 5750